Location: Hopville
(44.8032°N, 123.1329°W)
Time: 04:08:02
(UTC+00:00)

Cosmos 1937 Rocket - Pass Details

Date: 24 January 2021
Orbit: 746 x 780 km, 74.1° (Epoch: 26 February)

Event Time Altitude Azimuth Distance (km) Brightness Sun altitude
Exits shadow 13:31:33 52° 248° (WSW) 952 3.6 -22.6°
Drops below altitude 10° 13:36:25 10° 180° (S) 2,291 6.0 -21.7°
Sets 13:38:49 0° 175° (S) 3,207 6.9 -21.3°
